Year,Month,Day,Hour,Minute,Value (Times are PST for temperature in C)
2013,10,24,00,00,4.70
2013,10,24,00,01,4.70
2013,10,24,00,02,4.70
2013,10,24,00,03,4.70
2013,10,24,00,04,4.70
2013,10,24,00,05,4.70
2013,10,24,00,06,4.70
2013,10,24,00,07,4.70
2013,10,24,00,08,4.70
2013,10,24,00,09,4.70
2013,10,24,00,10,4.70
2013,10,24,00,11,4.70
2013,10,24,00,12,4.70
2013,10,24,00,13,4.70
2013,10,24,00,14,4.70
2013,10,24,00,15,4.70
2013,10,24,00,16,4.70
2013,10,24,00,17,4.70
2013,10,24,00,18,4.70
2013,10,24,00,19,4.70
2013,10,24,00,20,4.70
2013,10,24,00,21,4.70
2013,10,24,00,22,4.70
2013,10,24,00,23,4.60
2013,10,24,00,24,4.60
2013,10,24,00,25,4.60
2013,10,24,00,26,4.60
2013,10,24,00,27,4.60
2013,10,24,00,28,4.50
2013,10,24,00,29,4.50
2013,10,24,00,30,4.50
2013,10,24,00,31,4.50
2013,10,24,00,32,4.50
2013,10,24,00,33,4.50
2013,10,24,00,34,4.40
2013,10,24,00,35,4.40
2013,10,24,00,36,4.40
2013,10,24,00,37,4.50
2013,10,24,00,38,4.50
2013,10,24,00,39,4.50
2013,10,24,00,40,4.50
2013,10,24,00,41,4.50
2013,10,24,00,42,4.50
2013,10,24,00,43,4.60
2013,10,24,00,44,4.60
2013,10,24,00,45,4.60
2013,10,24,00,46,4.60
2013,10,24,00,47,4.60
2013,10,24,00,48,4.60
2013,10,24,00,49,4.60
2013,10,24,00,50,4.60
2013,10,24,00,51,4.60
2013,10,24,00,52,4.60
2013,10,24,00,53,4.60
2013,10,24,00,54,4.60
2013,10,24,00,55,4.50
2013,10,24,00,56,4.50
2013,10,24,00,57,4.50
2013,10,24,00,58,4.40
2013,10,24,00,59,4.40
2013,10,24,01,00,4.40
2013,10,24,01,01,4.40
2013,10,24,01,02,4.40
2013,10,24,01,03,4.40
2013,10,24,01,04,4.30
2013,10,24,01,05,4.30
2013,10,24,01,06,4.30
2013,10,24,01,07,4.30
2013,10,24,01,08,4.30
2013,10,24,01,09,4.30
2013,10,24,01,10,4.30
2013,10,24,01,11,4.30
2013,10,24,01,12,4.30
2013,10,24,01,13,4.30
2013,10,24,01,14,4.30
2013,10,24,01,15,4.30
2013,10,24,01,16,4.30
2013,10,24,01,17,4.30
2013,10,24,01,18,4.30
2013,10,24,01,19,4.30
2013,10,24,01,20,4.30
2013,10,24,01,21,4.30
2013,10,24,01,22,4.30
2013,10,24,01,23,4.30
2013,10,24,01,24,4.30
2013,10,24,01,25,4.30
2013,10,24,01,26,4.30
2013,10,24,01,27,4.30
2013,10,24,01,28,4.30
2013,10,24,01,29,4.30
2013,10,24,01,30,4.30
2013,10,24,01,31,4.30
2013,10,24,01,32,4.30
2013,10,24,01,33,4.30
2013,10,24,01,34,4.30
2013,10,24,01,35,4.30
2013,10,24,01,36,4.30
2013,10,24,01,37,4.20
2013,10,24,01,38,4.20
2013,10,24,01,39,4.20
2013,10,24,01,40,4.20
2013,10,24,01,41,4.20
2013,10,24,01,42,4.20
2013,10,24,01,43,4.20
2013,10,24,01,44,4.20
2013,10,24,01,45,4.10
2013,10,24,01,46,4.10
2013,10,24,01,47,4.10
2013,10,24,01,48,4.10
2013,10,24,01,49,4.10
2013,10,24,01,50,4.10
2013,10,24,01,51,4.10
2013,10,24,01,52,4.10
2013,10,24,01,53,4.10
2013,10,24,01,54,4.10
2013,10,24,01,55,4.10
2013,10,24,01,56,4.10
2013,10,24,01,57,4.10
2013,10,24,01,58,4.10
2013,10,24,01,59,4.10
2013,10,24,02,00,4.10
2013,10,24,02,01,4.10
2013,10,24,02,02,4.10
2013,10,24,02,03,4.10
2013,10,24,02,04,4.10
2013,10,24,02,05,4.10
2013,10,24,02,06,4.00
2013,10,24,02,07,4.00
2013,10,24,02,08,4.00
2013,10,24,02,09,4.00
2013,10,24,02,10,4.00
2013,10,24,02,11,4.00
2013,10,24,02,12,4.00
2013,10,24,02,13,3.90
2013,10,24,02,14,3.90
2013,10,24,02,15,3.90
2013,10,24,02,16,3.90
2013,10,24,02,17,3.90
2013,10,24,02,18,3.90
2013,10,24,02,19,3.90
2013,10,24,02,20,3.90
2013,10,24,02,21,3.90
2013,10,24,02,22,3.90
2013,10,24,02,23,3.90
2013,10,24,02,24,3.90
2013,10,24,02,25,3.90
2013,10,24,02,26,3.90
2013,10,24,02,27,3.90
2013,10,24,02,28,3.90
2013,10,24,02,29,3.90
2013,10,24,02,30,3.90
2013,10,24,02,31,3.90
2013,10,24,02,32,3.90
2013,10,24,02,33,3.90
2013,10,24,02,34,3.90
2013,10,24,02,35,3.90
2013,10,24,02,36,3.90
2013,10,24,02,37,3.90
2013,10,24,02,38,3.90
2013,10,24,02,39,3.90
2013,10,24,02,40,3.90
2013,10,24,02,41,3.90
2013,10,24,02,42,3.90
2013,10,24,02,43,4.00
2013,10,24,02,44,4.00
2013,10,24,02,45,4.00
2013,10,24,02,46,4.00
2013,10,24,02,47,4.00
2013,10,24,02,48,4.00
2013,10,24,02,49,4.00
2013,10,24,02,50,4.00
2013,10,24,02,51,4.00
2013,10,24,02,52,3.90
2013,10,24,02,53,3.90
2013,10,24,02,54,4.00
2013,10,24,02,55,3.90
2013,10,24,02,56,3.90
2013,10,24,02,57,3.90
2013,10,24,02,58,3.90
2013,10,24,02,59,3.90
2013,10,24,03,00,3.90
2013,10,24,03,01,3.90
2013,10,24,03,02,3.90
2013,10,24,03,03,3.90
2013,10,24,03,06,3.80
2013,10,24,03,07,3.80
2013,10,24,03,08,3.80
2013,10,24,03,09,3.80
2013,10,24,03,10,3.80
2013,10,24,03,11,3.80
2013,10,24,03,12,3.80
2013,10,24,03,13,3.80
2013,10,24,03,14,3.80
2013,10,24,03,15,3.80
2013,10,24,03,16,3.90
2013,10,24,03,17,3.90
2013,10,24,03,18,3.90
2013,10,24,03,19,3.90
2013,10,24,03,20,3.90
2013,10,24,03,21,3.90
2013,10,24,03,22,3.90
2013,10,24,03,23,3.90
2013,10,24,03,24,3.80
2013,10,24,03,25,3.80
2013,10,24,03,26,3.80
2013,10,24,03,27,3.80
2013,10,24,03,28,3.80
2013,10,24,03,29,3.80
2013,10,24,03,30,3.80
2013,10,24,03,31,3.80
2013,10,24,03,32,3.80
2013,10,24,03,33,3.80
2013,10,24,03,34,3.80
2013,10,24,03,35,3.80
2013,10,24,03,36,3.80
2013,10,24,03,37,3.90
2013,10,24,03,38,3.90
2013,10,24,03,39,3.90
2013,10,24,03,40,3.90
2013,10,24,03,41,3.90
2013,10,24,03,42,3.90
2013,10,24,03,43,3.90
2013,10,24,03,44,3.90
2013,10,24,03,45,3.90
2013,10,24,03,46,3.90
2013,10,24,03,47,3.90
2013,10,24,03,48,3.90
2013,10,24,03,49,3.90
2013,10,24,03,50,3.90
2013,10,24,03,51,3.90
2013,10,24,03,52,3.90
2013,10,24,03,53,3.90
2013,10,24,03,54,3.90
2013,10,24,03,55,3.90
2013,10,24,03,56,3.90
2013,10,24,03,57,3.90
2013,10,24,03,58,3.90
2013,10,24,03,59,3.90
2013,10,24,04,00,3.90
2013,10,24,04,01,3.80
2013,10,24,04,02,3.80
2013,10,24,04,03,3.80
2013,10,24,04,04,3.80
2013,10,24,04,05,3.80
2013,10,24,04,06,3.80
2013,10,24,04,07,3.80
2013,10,24,04,08,3.80
2013,10,24,04,09,3.70
2013,10,24,04,10,3.70
2013,10,24,04,11,3.70
2013,10,24,04,12,3.70
2013,10,24,04,13,3.60
2013,10,24,04,14,3.60
2013,10,24,04,15,3.60
2013,10,24,04,16,3.60
2013,10,24,04,17,3.60
2013,10,24,04,18,3.60
2013,10,24,04,19,3.60
2013,10,24,04,20,3.60
2013,10,24,04,21,3.60
2013,10,24,04,22,3.60
2013,10,24,04,23,3.60
2013,10,24,04,24,3.60
2013,10,24,04,25,3.60
2013,10,24,04,26,3.60
2013,10,24,04,27,3.60
2013,10,24,04,28,3.50
2013,10,24,04,29,3.50
2013,10,24,04,30,3.50
2013,10,24,04,31,3.50
2013,10,24,04,32,3.50
2013,10,24,04,33,3.50
2013,10,24,04,34,3.50
2013,10,24,04,35,3.50
2013,10,24,04,36,3.40
2013,10,24,04,37,3.40
2013,10,24,04,38,3.40
2013,10,24,04,39,3.50
2013,10,24,04,40,3.50
2013,10,24,04,41,3.50
2013,10,24,04,42,3.60
2013,10,24,04,43,3.60
2013,10,24,04,44,3.60
2013,10,24,04,45,3.70
2013,10,24,04,46,3.70
2013,10,24,04,47,3.70
2013,10,24,04,48,3.70
2013,10,24,04,49,3.70
2013,10,24,04,50,3.70
2013,10,24,04,51,3.60
2013,10,24,04,52,3.60
2013,10,24,04,53,3.60
2013,10,24,04,54,3.60
2013,10,24,04,55,3.60
2013,10,24,04,56,3.60
2013,10,24,04,57,3.60
2013,10,24,04,58,3.50
2013,10,24,04,59,3.50
2013,10,24,05,00,3.50
2013,10,24,05,01,3.50
2013,10,24,05,02,3.50
2013,10,24,05,03,3.50
2013,10,24,05,04,3.40
2013,10,24,05,05,3.40
2013,10,24,05,06,3.40
2013,10,24,05,07,3.40
2013,10,24,05,08,3.40
2013,10,24,05,09,3.40
2013,10,24,05,10,3.40
2013,10,24,05,11,3.40
2013,10,24,05,12,3.40
2013,10,24,05,13,3.40
2013,10,24,05,14,3.40
2013,10,24,05,15,3.40
2013,10,24,05,16,3.40
2013,10,24,05,17,3.40
2013,10,24,05,18,3.40
2013,10,24,05,19,3.40
2013,10,24,05,20,3.40
2013,10,24,05,21,3.40
2013,10,24,05,22,3.40
2013,10,24,05,23,3.40
2013,10,24,05,24,3.40
2013,10,24,05,25,3.40
2013,10,24,05,26,3.40
2013,10,24,05,27,3.30
2013,10,24,05,28,3.30
2013,10,24,05,29,3.30
2013,10,24,05,30,3.30
2013,10,24,05,31,3.30
2013,10,24,05,32,3.30
2013,10,24,05,33,3.30
2013,10,24,05,34,3.30
2013,10,24,05,35,3.30
2013,10,24,05,36,3.30
2013,10,24,05,37,3.30
2013,10,24,05,38,3.30
2013,10,24,05,39,3.30
2013,10,24,05,40,3.30
2013,10,24,05,41,3.30
2013,10,24,05,42,3.30
2013,10,24,05,43,3.30
2013,10,24,05,44,3.30
2013,10,24,05,45,3.30
2013,10,24,05,46,3.30
2013,10,24,05,47,3.30
2013,10,24,05,48,3.30
2013,10,24,05,49,3.40
2013,10,24,05,50,3.30
2013,10,24,05,51,3.30
2013,10,24,05,52,3.30
2013,10,24,05,53,3.30
2013,10,24,05,54,3.30
2013,10,24,05,55,3.30
2013,10,24,05,56,3.30
2013,10,24,05,57,3.30
2013,10,24,05,58,3.30
2013,10,24,05,59,3.30
2013,10,24,06,00,3.30
2013,10,24,06,01,3.30
2013,10,24,06,02,3.30
2013,10,24,06,03,3.30
2013,10,24,06,04,3.30
2013,10,24,06,05,3.30
2013,10,24,06,06,3.20
2013,10,24,06,07,3.20
2013,10,24,06,08,3.20
2013,10,24,06,09,3.20
2013,10,24,06,10,3.20
2013,10,24,06,11,3.20
2013,10,24,06,12,3.20
2013,10,24,06,13,3.20
2013,10,24,06,14,3.20
2013,10,24,06,15,3.20
2013,10,24,06,16,3.20
2013,10,24,06,17,3.20
2013,10,24,06,18,3.30
2013,10,24,06,19,3.30
2013,10,24,06,20,3.30
2013,10,24,06,21,3.30
2013,10,24,06,22,3.30
2013,10,24,06,23,3.30
2013,10,24,06,24,3.30
2013,10,24,06,25,3.30
2013,10,24,06,26,3.20
2013,10,24,06,27,3.20
2013,10,24,06,28,3.20
2013,10,24,06,29,3.20
2013,10,24,06,30,3.10
2013,10,24,06,31,3.10
2013,10,24,06,32,3.10
2013,10,24,06,33,3.10
2013,10,24,06,34,3.00
2013,10,24,06,35,3.00
2013,10,24,06,36,3.00
2013,10,24,06,37,2.90
2013,10,24,06,38,2.90
2013,10,24,06,39,2.90
2013,10,24,06,40,2.90
2013,10,24,06,41,3.00
2013,10,24,06,42,3.00
2013,10,24,06,43,3.10
2013,10,24,06,44,3.10
2013,10,24,06,45,3.10
2013,10,24,06,46,3.10
2013,10,24,06,47,3.20
2013,10,24,06,48,3.20
2013,10,24,06,49,3.20
2013,10,24,06,50,3.20
2013,10,24,06,51,3.20
2013,10,24,06,52,3.20
2013,10,24,06,53,3.20
2013,10,24,06,54,3.10
2013,10,24,06,55,3.10
2013,10,24,06,56,3.10
2013,10,24,06,57,3.10
2013,10,24,06,58,3.10
2013,10,24,06,59,3.10
2013,10,24,07,00,3.10
2013,10,24,07,01,3.10
2013,10,24,07,02,3.10
2013,10,24,07,03,3.10
2013,10,24,07,04,3.00
2013,10,24,07,05,3.00
2013,10,24,07,06,3.00
2013,10,24,07,07,3.00
2013,10,24,07,08,3.00
2013,10,24,07,09,3.00
2013,10,24,07,10,3.00
2013,10,24,07,11,3.00
2013,10,24,07,12,3.00
2013,10,24,07,13,3.00
2013,10,24,07,14,3.00
2013,10,24,07,15,3.00
2013,10,24,07,16,3.00
2013,10,24,07,17,2.90
2013,10,24,07,18,2.90
2013,10,24,07,19,2.90
2013,10,24,07,20,2.90
2013,10,24,07,21,2.90
2013,10,24,07,22,2.90
2013,10,24,07,23,2.90
2013,10,24,07,24,2.90
2013,10,24,07,25,2.90
2013,10,24,07,26,2.90
2013,10,24,07,27,2.90
2013,10,24,07,28,2.90
2013,10,24,07,29,2.90
2013,10,24,07,30,2.90
2013,10,24,07,31,3.00
2013,10,24,07,32,3.00
2013,10,24,07,33,3.00
2013,10,24,07,34,3.00
2013,10,24,07,35,3.00
2013,10,24,07,36,3.00
2013,10,24,07,37,3.00
2013,10,24,07,38,3.00
2013,10,24,07,39,3.00
2013,10,24,07,40,3.00
2013,10,24,07,41,3.00
2013,10,24,07,42,3.00
2013,10,24,07,43,3.00
2013,10,24,07,44,3.00
2013,10,24,07,45,3.00
2013,10,24,07,46,3.00
2013,10,24,07,47,2.90
2013,10,24,07,48,2.90
2013,10,24,07,49,2.90
2013,10,24,07,50,2.90
2013,10,24,07,51,2.90
2013,10,24,07,52,2.90
2013,10,24,07,53,2.90
2013,10,24,07,54,2.80
2013,10,24,07,55,2.80
2013,10,24,07,56,2.80
2013,10,24,07,57,2.80
2013,10,24,07,58,2.90
2013,10,24,07,59,2.90
2013,10,24,08,00,2.90
2013,10,24,08,01,2.90
2013,10,24,08,02,2.90
2013,10,24,08,03,2.90
2013,10,24,08,04,3.00
2013,10,24,08,05,3.00
2013,10,24,08,06,3.00
2013,10,24,08,07,3.00
2013,10,24,08,08,3.10
2013,10,24,08,09,3.10
2013,10,24,08,10,3.10
2013,10,24,08,11,3.10
2013,10,24,08,12,3.00
2013,10,24,08,13,3.00
2013,10,24,08,14,3.00
2013,10,24,08,15,3.00
2013,10,24,08,16,3.00
2013,10,24,08,17,3.00
2013,10,24,08,18,3.00
2013,10,24,08,19,3.00
2013,10,24,08,20,3.00
2013,10,24,08,21,3.10
2013,10,24,08,22,3.10
2013,10,24,08,23,3.10
2013,10,24,08,24,3.10
2013,10,24,08,25,3.10
2013,10,24,08,26,3.10
2013,10,24,08,27,3.10
2013,10,24,08,28,3.20
2013,10,24,08,29,3.10
2013,10,24,08,30,3.10
2013,10,24,08,31,3.10
2013,10,24,08,32,3.10
2013,10,24,08,33,3.10
2013,10,24,08,34,3.10
2013,10,24,08,35,3.10
2013,10,24,08,36,3.10
2013,10,24,08,37,3.10
2013,10,24,08,38,3.10
2013,10,24,08,39,3.10
2013,10,24,08,40,3.20
2013,10,24,08,41,3.20
2013,10,24,08,42,3.20
2013,10,24,08,43,3.20
2013,10,24,08,44,3.30
2013,10,24,08,45,3.30
2013,10,24,08,46,3.30
2013,10,24,08,47,3.40
2013,10,24,08,48,3.50
2013,10,24,08,49,3.50
2013,10,24,08,50,3.60
2013,10,24,08,51,3.60
2013,10,24,08,52,3.70
2013,10,24,08,53,3.70
2013,10,24,08,54,3.80
2013,10,24,08,55,3.80
2013,10,24,08,56,3.80
2013,10,24,08,57,3.90
2013,10,24,08,58,3.90
2013,10,24,08,59,3.90
2013,10,24,09,00,4.00
2013,10,24,09,01,4.00
2013,10,24,09,02,4.10
2013,10,24,09,03,4.10
2013,10,24,09,04,4.10
2013,10,24,09,05,4.20
2013,10,24,09,06,4.20
2013,10,24,09,07,4.20
2013,10,24,09,08,4.30
2013,10,24,09,09,4.30
2013,10,24,09,10,4.30
2013,10,24,09,11,4.30
2013,10,24,09,12,4.40
2013,10,24,09,13,4.40
2013,10,24,09,14,4.40
2013,10,24,09,15,4.40
2013,10,24,09,16,4.50
2013,10,24,09,17,4.50
2013,10,24,09,18,4.60
2013,10,24,09,19,4.70
2013,10,24,09,20,4.70
2013,10,24,09,21,4.80
2013,10,24,09,22,4.90
2013,10,24,09,23,5.10
2013,10,24,09,24,5.10
2013,10,24,09,25,5.30
2013,10,24,09,26,5.40
2013,10,24,09,27,5.50
2013,10,24,09,28,5.60
2013,10,24,09,29,5.60
2013,10,24,09,30,5.70
2013,10,24,09,31,5.70
2013,10,24,09,32,5.70
2013,10,24,09,33,5.70
2013,10,24,09,34,5.70
2013,10,24,09,35,5.80
2013,10,24,09,36,5.80
2013,10,24,09,37,5.80
2013,10,24,09,38,5.80
2013,10,24,09,39,5.80
2013,10,24,09,40,5.90
2013,10,24,09,41,6.00
2013,10,24,09,42,6.10
2013,10,24,09,43,6.20
2013,10,24,09,44,6.40
2013,10,24,09,45,6.50
2013,10,24,09,46,6.70
2013,10,24,09,47,6.90
2013,10,24,09,48,7.20
2013,10,24,09,49,7.30
2013,10,24,09,50,7.50
2013,10,24,09,51,7.70
2013,10,24,09,52,7.90
2013,10,24,09,53,8.00
2013,10,24,09,54,8.20
2013,10,24,09,55,8.30
2013,10,24,09,56,8.50
2013,10,24,09,57,8.60
2013,10,24,09,58,8.60
2013,10,24,09,59,8.60
2013,10,24,10,00,8.60
2013,10,24,10,01,8.60
2013,10,24,10,02,8.60
2013,10,24,10,03,8.60
2013,10,24,10,04,8.60
2013,10,24,10,05,8.60
2013,10,24,10,06,8.60
2013,10,24,10,07,8.60
2013,10,24,10,08,8.60
2013,10,24,10,09,8.70
2013,10,24,10,10,8.70
2013,10,24,10,11,8.80
2013,10,24,10,12,8.80
2013,10,24,10,13,8.80
2013,10,24,10,14,8.90
2013,10,24,10,15,8.90
2013,10,24,10,16,9.00
2013,10,24,10,17,9.10
2013,10,24,10,18,9.20
2013,10,24,10,19,9.40
2013,10,24,10,20,9.60
2013,10,24,10,21,9.70
2013,10,24,10,22,9.80
2013,10,24,10,23,9.90
2013,10,24,10,24,9.90
2013,10,24,10,25,10.00
2013,10,24,10,26,10.10
2013,10,24,10,27,10.20
2013,10,24,10,28,10.30
2013,10,24,10,29,10.50
2013,10,24,10,30,10.60
2013,10,24,10,31,10.70
2013,10,24,10,32,10.70
2013,10,24,10,33,10.80
2013,10,24,10,34,10.80
2013,10,24,10,35,10.80
2013,10,24,10,36,10.80
2013,10,24,10,37,10.90
2013,10,24,10,38,10.90
2013,10,24,10,39,10.90
2013,10,24,10,40,10.90
2013,10,24,10,41,10.90
2013,10,24,10,42,10.90
2013,10,24,10,43,10.90
2013,10,24,10,44,10.90
2013,10,24,10,45,10.90
2013,10,24,10,46,10.90
2013,10,24,10,47,10.90
2013,10,24,10,48,10.90
2013,10,24,10,49,10.90
2013,10,24,10,50,10.90
2013,10,24,10,51,10.90
2013,10,24,10,52,10.90
2013,10,24,10,53,11.00
2013,10,24,10,54,11.00
2013,10,24,10,55,11.00
2013,10,24,10,56,11.10
2013,10,24,10,57,11.10
2013,10,24,10,58,11.10
2013,10,24,10,59,11.20
2013,10,24,11,00,11.20
2013,10,24,11,01,11.20
2013,10,24,11,02,11.20
2013,10,24,11,03,11.20
2013,10,24,11,04,11.20
2013,10,24,11,05,11.30
2013,10,24,11,06,11.40
2013,10,24,11,07,11.50
2013,10,24,11,08,11.70
2013,10,24,11,09,11.80
2013,10,24,11,10,11.90
2013,10,24,11,11,12.10
2013,10,24,11,12,12.20
2013,10,24,11,13,12.30
2013,10,24,11,14,12.40
2013,10,24,11,15,12.50
2013,10,24,11,16,12.60
2013,10,24,11,17,12.70
2013,10,24,11,18,12.90
2013,10,24,11,19,13.00
2013,10,24,11,20,13.00
2013,10,24,11,21,13.10
2013,10,24,11,22,13.20
2013,10,24,11,23,13.20
2013,10,24,11,24,13.30
2013,10,24,11,25,13.40
2013,10,24,11,26,13.50
2013,10,24,11,27,13.60
2013,10,24,11,28,13.60
2013,10,24,11,29,13.60
2013,10,24,11,30,13.70
2013,10,24,11,31,13.70
2013,10,24,11,32,13.70
2013,10,24,11,33,13.70
2013,10,24,11,34,13.70
2013,10,24,11,35,13.70
2013,10,24,11,36,13.70
2013,10,24,11,37,13.70
2013,10,24,11,38,13.70
2013,10,24,11,39,13.70
2013,10,24,11,40,13.80
2013,10,24,11,41,13.80
2013,10,24,11,42,13.70
2013,10,24,11,43,13.70
2013,10,24,11,44,13.70
2013,10,24,11,45,13.80
2013,10,24,11,46,13.90
2013,10,24,11,47,14.00
2013,10,24,11,48,14.10
2013,10,24,11,49,14.10
2013,10,24,11,50,14.20
2013,10,24,11,51,14.20
2013,10,24,11,52,14.20
2013,10,24,11,53,14.20
2013,10,24,11,54,14.20
2013,10,24,11,55,14.20
2013,10,24,11,56,14.30
2013,10,24,11,57,14.40
2013,10,24,11,58,14.40
2013,10,24,11,59,14.40
2013,10,24,12,00,14.40
2013,10,24,12,01,14.40
2013,10,24,12,02,14.30
2013,10,24,12,03,14.30
2013,10,24,12,04,14.30
2013,10,24,12,05,14.20
2013,10,24,12,06,14.20
2013,10,24,12,07,14.20
2013,10,24,12,08,14.20
2013,10,24,12,09,14.20
2013,10,24,12,10,14.20
2013,10,24,12,11,14.30
2013,10,24,12,12,14.30
2013,10,24,12,13,14.20
2013,10,24,12,14,14.20
2013,10,24,12,15,14.20
2013,10,24,12,16,14.20
2013,10,24,12,17,14.20
2013,10,24,12,18,14.20
2013,10,24,12,19,14.20
2013,10,24,12,20,14.20
2013,10,24,12,21,14.20
2013,10,24,12,22,14.20
2013,10,24,12,23,14.10
2013,10,24,12,24,14.10
2013,10,24,12,25,14.00
2013,10,24,12,26,14.00
2013,10,24,12,27,13.90
2013,10,24,12,28,13.90
2013,10,24,12,29,13.80
2013,10,24,12,30,13.80
2013,10,24,12,31,13.80
2013,10,24,12,32,13.80
2013,10,24,12,33,13.70
2013,10,24,12,34,13.80
2013,10,24,12,35,13.80
2013,10,24,12,36,13.90
2013,10,24,12,37,13.90
2013,10,24,12,38,13.90
2013,10,24,12,39,13.90
2013,10,24,12,40,13.90
2013,10,24,12,41,13.90
2013,10,24,12,42,13.90
2013,10,24,12,43,13.90
2013,10,24,12,44,14.00
2013,10,24,12,45,14.10
2013,10,24,12,46,14.10
2013,10,24,12,47,14.20
2013,10,24,12,48,14.10
2013,10,24,12,49,14.10
2013,10,24,12,50,14.10
2013,10,24,12,51,14.10
2013,10,24,12,52,14.20
2013,10,24,12,53,14.20
2013,10,24,12,54,14.20
2013,10,24,12,55,14.30
2013,10,24,12,56,14.30
2013,10,24,12,57,14.30
2013,10,24,12,58,14.30
2013,10,24,12,59,14.40
2013,10,24,13,00,14.40
2013,10,24,13,01,14.50
2013,10,24,13,02,14.60
2013,10,24,13,03,14.60
2013,10,24,13,04,14.60
2013,10,24,13,05,14.60
2013,10,24,13,06,14.60
2013,10,24,13,07,14.60
2013,10,24,13,08,14.70
2013,10,24,13,09,14.60
2013,10,24,13,10,14.60
2013,10,24,13,11,14.70
2013,10,24,13,12,14.70
2013,10,24,13,13,14.70
2013,10,24,13,14,14.70
2013,10,24,13,15,14.70
2013,10,24,13,16,14.60
2013,10,24,13,17,14.60
2013,10,24,13,18,14.50
2013,10,24,13,19,14.50
2013,10,24,13,20,14.50
2013,10,24,13,21,14.50
2013,10,24,13,22,14.50
2013,10,24,13,23,14.50
2013,10,24,13,24,14.40
2013,10,24,13,25,14.50
2013,10,24,13,26,14.50
2013,10,24,13,27,14.50
2013,10,24,13,28,14.50
2013,10,24,13,29,14.40
2013,10,24,13,30,14.40
2013,10,24,13,31,14.40
2013,10,24,13,32,14.40
2013,10,24,13,33,14.30
2013,10,24,13,34,14.30
2013,10,24,13,35,14.30
2013,10,24,13,36,14.30
2013,10,24,13,37,14.20
2013,10,24,13,38,14.20
2013,10,24,13,39,14.20
2013,10,24,13,40,14.20
2013,10,24,13,41,14.30
2013,10,24,13,42,14.30
2013,10,24,13,43,14.30
2013,10,24,13,44,14.30
2013,10,24,13,45,14.30
2013,10,24,13,46,14.30
2013,10,24,13,47,14.30
2013,10,24,13,48,14.40
2013,10,24,13,49,14.40
2013,10,24,13,50,14.50
2013,10,24,13,51,14.50
2013,10,24,13,52,14.50
2013,10,24,13,53,14.50
2013,10,24,13,54,14.60
2013,10,24,13,55,14.60
2013,10,24,13,56,14.60
2013,10,24,13,57,14.60
2013,10,24,13,58,14.60
2013,10,24,13,59,14.60
2013,10,24,14,00,14.70
2013,10,24,14,01,14.70
2013,10,24,14,02,14.70
2013,10,24,14,03,14.70
2013,10,24,14,04,14.70
2013,10,24,14,05,14.70
2013,10,24,14,06,14.80
2013,10,24,14,07,14.80
2013,10,24,14,08,14.80
2013,10,24,14,09,14.90
2013,10,24,14,10,14.90
2013,10,24,14,11,15.00
2013,10,24,14,12,15.00
2013,10,24,14,13,15.00
2013,10,24,14,14,15.00
2013,10,24,14,15,15.00
2013,10,24,14,16,15.00
2013,10,24,14,17,15.00
2013,10,24,14,18,15.00
2013,10,24,14,19,15.00
2013,10,24,14,20,15.00
2013,10,24,14,21,15.00
2013,10,24,14,22,15.00
2013,10,24,14,23,15.00
2013,10,24,14,24,15.00
2013,10,24,14,25,15.00
2013,10,24,14,26,15.00
2013,10,24,14,27,15.00
2013,10,24,14,28,15.00
2013,10,24,14,29,15.10
2013,10,24,14,30,15.20
2013,10,24,14,31,15.30
2013,10,24,14,32,15.30
2013,10,24,14,33,15.40
2013,10,24,14,34,15.40
2013,10,24,14,35,15.40
2013,10,24,14,36,15.50
2013,10,24,14,37,15.50
2013,10,24,14,38,15.50
2013,10,24,14,39,15.40
2013,10,24,14,40,15.40
2013,10,24,14,41,15.30
2013,10,24,14,42,15.30
2013,10,24,14,43,15.30
2013,10,24,14,44,15.30
2013,10,24,14,45,15.30
2013,10,24,14,46,15.30
2013,10,24,14,47,15.30
2013,10,24,14,48,15.30
2013,10,24,14,49,15.20
2013,10,24,14,50,15.20
2013,10,24,14,51,15.10
2013,10,24,14,52,15.10
2013,10,24,14,53,15.00
2013,10,24,14,54,15.00
2013,10,24,14,55,15.00
2013,10,24,14,56,15.00
2013,10,24,14,57,15.00
2013,10,24,14,58,15.00
2013,10,24,14,59,15.00
2013,10,24,15,00,15.00
2013,10,24,15,01,15.00
2013,10,24,15,02,15.10
2013,10,24,15,03,15.20
2013,10,24,15,04,15.20
2013,10,24,15,05,15.30
2013,10,24,15,06,15.30
2013,10,24,15,07,15.30
2013,10,24,15,08,15.30
2013,10,24,15,09,15.30
2013,10,24,15,10,15.30
2013,10,24,15,11,15.40
2013,10,24,15,12,15.40
2013,10,24,15,13,15.40
2013,10,24,15,14,15.30
2013,10,24,15,15,15.30
2013,10,24,15,16,15.20
2013,10,24,15,17,15.20
2013,10,24,15,18,15.10
2013,10,24,15,19,15.10
2013,10,24,15,20,15.10
2013,10,24,15,21,15.00
2013,10,24,15,22,15.00
2013,10,24,15,23,15.00
2013,10,24,15,24,15.00
2013,10,24,15,25,15.00
2013,10,24,15,26,15.00
2013,10,24,15,27,15.00
2013,10,24,15,28,15.00
2013,10,24,15,29,15.00
2013,10,24,15,30,15.00
2013,10,24,15,31,15.00
2013,10,24,15,32,15.00
2013,10,24,15,33,15.10
2013,10,24,15,34,15.10
2013,10,24,15,35,15.10
2013,10,24,15,36,15.20
2013,10,24,15,37,15.20
2013,10,24,15,38,15.30
2013,10,24,15,39,15.30
2013,10,24,15,40,15.30
2013,10,24,15,41,15.20
2013,10,24,15,42,15.20
2013,10,24,15,43,15.10
2013,10,24,15,44,15.00
2013,10,24,15,45,15.00
2013,10,24,15,46,15.00
2013,10,24,15,47,15.00
2013,10,24,15,48,15.00
2013,10,24,15,49,15.00
2013,10,24,15,50,14.90
2013,10,24,15,51,14.80
2013,10,24,15,52,14.80
2013,10,24,15,53,14.80
2013,10,24,15,54,14.80
2013,10,24,15,55,14.80
2013,10,24,15,56,14.80
2013,10,24,15,57,14.90
2013,10,24,15,58,14.90
2013,10,24,15,59,14.90
2013,10,24,16,00,15.00
2013,10,24,16,01,15.00
2013,10,24,16,02,15.00
2013,10,24,16,03,15.00
2013,10,24,16,04,15.00
2013,10,24,16,05,15.00
2013,10,24,16,06,15.00
2013,10,24,16,07,15.00
2013,10,24,16,08,15.00
2013,10,24,16,09,15.00
2013,10,24,16,10,15.00
2013,10,24,16,11,15.00
2013,10,24,16,12,15.00
2013,10,24,16,13,15.00
2013,10,24,16,14,15.00
2013,10,24,16,15,15.00
2013,10,24,16,16,15.00
2013,10,24,16,17,15.00
2013,10,24,16,18,15.00
2013,10,24,16,19,15.20
2013,10,24,16,20,15.20
2013,10,24,16,21,15.30
2013,10,24,16,22,15.30
2013,10,24,16,23,15.30
2013,10,24,16,24,15.40
2013,10,24,16,25,15.40
2013,10,24,16,26,15.40
2013,10,24,16,27,15.40
2013,10,24,16,28,15.40
2013,10,24,16,29,15.30
2013,10,24,16,30,15.30
2013,10,24,16,31,15.20
2013,10,24,16,32,15.10
2013,10,24,16,33,15.00
2013,10,24,16,34,15.00
2013,10,24,16,35,15.00
2013,10,24,16,36,15.00
2013,10,24,16,37,14.90
2013,10,24,16,38,14.80
2013,10,24,16,39,14.70
2013,10,24,16,40,14.70
2013,10,24,16,41,14.60
2013,10,24,16,42,14.60
2013,10,24,16,43,14.60
2013,10,24,16,44,14.50
2013,10,24,16,45,14.40
2013,10,24,16,46,14.40
2013,10,24,16,47,14.40
2013,10,24,16,48,14.30
2013,10,24,16,49,14.30
2013,10,24,16,50,14.20
2013,10,24,16,51,14.20
2013,10,24,16,52,14.10
2013,10,24,16,53,14.10
2013,10,24,16,54,14.10
2013,10,24,16,55,14.10
2013,10,24,16,56,14.00
2013,10,24,16,57,14.00
2013,10,24,16,58,13.90
2013,10,24,16,59,13.90
2013,10,24,17,00,13.90
2013,10,24,17,01,13.90
2013,10,24,17,02,13.80
2013,10,24,17,03,13.80
2013,10,24,17,04,13.80
2013,10,24,17,05,13.70
2013,10,24,17,06,13.70
2013,10,24,17,07,13.70
2013,10,24,17,08,13.60
2013,10,24,17,09,13.60
2013,10,24,17,10,13.50
2013,10,24,17,11,13.50
2013,10,24,17,12,13.50
2013,10,24,17,13,13.40
2013,10,24,17,14,13.40
2013,10,24,17,15,13.40
2013,10,24,17,16,13.30
2013,10,24,17,17,13.30
2013,10,24,17,18,13.30
2013,10,24,17,19,13.30
2013,10,24,17,20,13.20
2013,10,24,17,21,13.20
2013,10,24,17,22,13.20
2013,10,24,17,23,13.10
2013,10,24,17,24,13.10
2013,10,24,17,25,13.10
2013,10,24,17,26,13.00
2013,10,24,17,27,13.00
2013,10,24,17,28,12.90
2013,10,24,17,29,12.90
2013,10,24,17,30,12.90
2013,10,24,17,31,12.80
2013,10,24,17,32,12.80
2013,10,24,17,33,12.80
2013,10,24,17,34,12.80
2013,10,24,17,35,12.70
2013,10,24,17,36,12.70
2013,10,24,17,37,12.60
2013,10,24,17,38,12.50
2013,10,24,17,39,12.50
2013,10,24,17,40,12.40
2013,10,24,17,41,12.40
2013,10,24,17,42,12.30
2013,10,24,17,43,12.30
2013,10,24,17,44,12.20
2013,10,24,17,45,12.20
2013,10,24,17,46,12.10
2013,10,24,17,47,12.00
2013,10,24,17,48,11.90